SCP
4 4 4 4 6 7 8 8 11 15 15 11 7 6 7 9 11 10 9 7 5 4 3 3 3 3 4 3 2 2 2 2 2 2 1 1 1 2 2 2 2 2 2
4 4 4 4 6 7 8 9 11 13 13 10 7 7 9 10 10 9 8 6 5 4 3 3 4 4 4 3 2 2 2 2 2 2 2 1 1 1 1 2 2 2 3
5 5 5 5 6 7 9 10 11 11 10 8 7 8 9 9 8 7 7 6 5 5 4 4 5 4 3 2 2 2 2 2 2 2 2 1 1 1 1 2 2 3 3
7 7 7 7 7 7 10 13 14 13 11 9 7 7 7 7 8 8 8 7 6 5 5 4 4 4 3 2 2 2 2 2 2 2 2 2 2 1 1 2 2 3 3
9 9 9 9 8 7 9 14 18 17 14 11 8 7 8 9 11 12 10 8 6 5 5 4 4 4 3 2 2 2 2 2 2 2 2 2 2 2 2 2 2 2 3
10 10 9 9 8 6 8 13 18 19 17 14 10 10 11 14 17 17 13 9 6 6 5 4 4 4 3 3 3 3 2 2 2 2 2 2 2 2 2 2 2 2 3
11 10 9 8 8 7 8 12 17 19 19 16 13 12 15 19 21 20 14 9 6 6 6 5 5 5 4 4 3 3 2 2 2 2 2 1 1 2 2 2 2 2 2
14 12 10 8 8 8 8 11 16 19 19 16 14 14 17 20 22 20 14 9 7 7 7 6 6 6 5 4 4 4 3 3 2 2 2 2 2 2 2 3 3 2 1
16 14 10 9 9 9 9 12 17 21 19 15 12 13 17 20 21 19 15 11 10 9 8 7 6 6 5 5 5 4 4 3 3 2 2 2 2 2 2 2 2 2 1
15 13 10 9 9 9 10 13 18 22 19 14 11 11 15 18 20 18 16 14 12 9 7 6 5 5 5 5 5 5 4 4 3 3 3 3 2 2 2 2 2 2 2
13 12 11 9 10 11 12 14 18 21 18 14 12 11 13 17 19 18 17 14 11 7 6 5 5 4 4 5 5 5 5 4 4 3 3 3 2 2 2 2 2 2 2
11 12 12 10 10 11 13 15 19 20 18 15 12 11 12 15 17 17 15 12 8 6 5 5 4 4 3 4 5 5 5 4 4 3 3 2 2 2 2 2 2 2 1
12 12 11 9 9 10 11 14 16 17 17 15 12 11 12 12 13 13 11 8 7 6 6 6 5 4 3 3 4 4 4 4 4 3 3 2 2 2 2 2 2 2 1
14 13 10 8 8 9 10 12 12 12 13 13 11 11 11 10 9 9 8 7 6 7 8 8 7 5 4 3 3 4 4 4 4 3 3 3 2 2 2 2 2 2 1
14 12 10 8 8 8 9 10 10 9 10 10 10 9 9 8 7 7 7 7 6 7 8 9 9 7 4 3 3 4 4 4 4 3 3 3 2 2 1 1 1 1 2
12 11 10 9 8 7 7 8 8 8 8 9 9 8 7 6 6 6 7 7 7 7 7 8 8 7 4 3 3 5 5 5 4 3 2 2 1 1 1 1 1 1 1
9 10 11 10 7 6 5 5 5 6 7 7 8 8 7 5 5 5 6 7 8 8 7 7 7 6 4 2 3 5 6 6 5 3 2 2 1 1 1 1 1 1 1
7 9 11 11 7 5 4 4 4 5 5 5 6 6 6 5 4 4 5 6 8 9 8 7 6 5 4 2 2 4 6 5 4 3 2 2 1 1 2 2 2 2 2
6 9 11 10 7 5 5 5 5 5 4 4 4 5 4 4 4 4 4 5 7 8 8 7 6 6 5 2 1 3 5 4 3 2 2 2 2 2 2 2 2 2 2
5 8 10 9 6 5 5 6 6 5 4 3 4 4 4 4 4 4 4 5 6 7 7 7 6 7 5 3 1 2 3 3 3 2 2 1 2 2 2 2 2 2 2
4 6 7 6 5 5 6 7 6 6 5 4 6 6 6 5 4 4 4 5 5 6 6 6 6 6 5 3 1 1 2 3 3 2 2 1 1 1 1 1 2 2 2
3 4 5 5 5 5 6 7 7 6 5 6 8 9 8 6 5 5 4 5 5 5 6 6 6 6 4 2 1 1 1 2 2 2 2 1 1 0 0 0 1 1 1
3 4 5 5 5 5 6 7 8 8 9 10 11 10 8 6 5 4 4 5 6 6 6 6 5 5 4 3 2 1 1 1 2 2 2 1 1 0 0 0 0 1 1
4 4 5 5 5 5 6 7 8 11 13 14 12 9 6 5 4 3 4 5 7 8 7 6 5 5 4 3 2 2 2 2 2 2 2 2 1 1 1 1 1 1 1
4 4 4 4 4 5 6 6 8 11 13 12 9 6 4 3 3 2 3 4 7 8 8 6 4 4 3 2 2 2 3 3 3 2 3 3 3 3 3 3 2 2 2
4 4 3 3 4 4 5 5 6 8 8 7 5 4 3 3 2 2 2 3 5 6 7 6 4 2 2 1 1 1 2 2 2 2 3 4 5 5 4 3 3 3 3
Wind_Speed
8 7 7 7 8 7 6 5 5 4 4 3 3 3 2 2 2 2 4 3 2 2 1 1 1 0 1 1 1 1 0 0 0 1 1 1 1 1 1 1 0 1 0
8 8 7 7 7 7 6 5 5 5 4 3 2 2 3 2 3 2 3 3 2 1 2 1 1 1 1 2 1 1 1 1 0 0 1 1 1 1 1 1 0 1 1
8 9 8 8 7 7 6 5 4 4 3 3 2 2 2 2 2 3 3 2 2 2 1 1 1 1 1 1 0 1 1 1 1 1 1 0 1 2 1 1 1 0 0
7 8 8 7 7 7 7 5 5 4 3 3 3 3 3 3 3 2 3 3 3 3 2 2 1 1 1 1 1 1 1 1 1 1 0 0 0 0 1 1 1 1 0
8 8 8 7 7 7 7 7 6 5 4 2 2 3 2 2 2 2 3 3 2 3 3 2 2 1 0 1 1 1 1 1 1 1 1 1 1 1 1 1 2 1 1
8 7 7 7 6 6 6 7 6 5 4 3 2 3 3 2 3 3 3 3 3 2 3 3 2 1 1 1 0 0 0 1 2 2 1 1 1 1 1 1 1 1 2
7 7 7 6 5 6 6 7 7 5 4 4 3 2 2 3 3 3 3 3 3 2 2 2 2 1 1 1 1 1 0 0 1 2 2 2 1 1 1 1 1 2 2
6 6 6 5 4 5 6 6 7 6 5 4 3 2 2 2 2 3 2 3 2 3 3 3 3 2 2 2 1 1 2 1 1 2 1 2 2 1 1 1 1 1 2
5 5 5 4 4 4 4 5 6 6 5 4 4 3 3 2 2 2 2 1 2 3 4 3 3 3 3 2 2 2 2 2 2 1 1 1 1 2 1 1 1 1 2
3 5 5 4 4 4 4 4 6 6 5 5 4 3 3 2 2 2 2 2 2 2 3 3 3 3 3 3 3 2 2 2 2 2 1 1 2 1 1 1 1 1 1
3 4 4 4 3 4 4 4 5 5 4 4 3 3 3 3 3 2 2 2 2 3 3 3 3 3 3 3 2 2 3 3 2 2 2 2 2 1 2 2 1 1 1
4 4 4 4 4 3 3 3 4 4 3 3 3 2 2 3 3 2 2 3 3 3 3 3 3 4 3 3 3 4 3 3 3 2 2 2 2 1 2 2 2 2 2
4 4 4 3 3 3 2 2 2 2 3 2 2 2 2 2 2 2 2 2 3 3 3 3 4 3 3 3 3 3 3 2 2 2 2 2 2 1 1 2 2 2 2
3 3 3 2 2 2 2 1 1 1 2 1 2 2 1 2 2 2 2 2 2 3 3 4 4 4 3 3 3 3 3 3 2 2 2 2 2 1 2 2 2 2 2
2 2 2 1 1 1 2 1 1 1 2 1 2 2 1 1 1 2 2 2 3 4 3 4 4 4 4 3 2 3 3 2 2 2 2 2 1 1 1 2 2 2 2
1 1 1 1 0 0 0 1 2 2 2 2 2 2 2 2 2 2 3 3 3 3 3 4 4 3 3 3 2 1 2 2 2 2 2 2 3 3 3 2 2 2 3
1 1 0 0 0 1 1 2 2 2 2 2 2 2 2 2 2 3 3 3 3 3 3 3 3 3 3 3 3 2 2 2 3 3 2 3 2 1 1 2 3 3 4
3 2 1 1 1 1 2 2 2 2 2 2 2 2 2 2 3 3 2 2 2 3 3 3 3 3 3 4 4 3 3 3 3 2 2 2 1 1 1 2 2 3 3
3 2 2 2 0 1 1 1 1 2 2 2 2 2 2 2 3 3 3 2 2 3 3 3 4 3 3 5 5 4 2 2 3 3 3 2 1 1 2 2 2 3 3
3 3 2 2 1 1 0 1 2 2 2 2 2 2 3 3 3 3 3 3 3 4 4 4 4 4 4 6 6 5 3 3 3 3 2 2 2 2 2 2 2 3 3
2 3 2 2 2 1 1 2 2 2 2 2 2 3 3 3 3 3 3 3 3 3 3 4 4 4 4 6 7 6 3 3 3 3 2 1 2 2 3 3 3 4 3
3 2 2 2 2 2 1 2 2 2 2 2 2 2 3 4 3 2 3 3 3 3 4 4 4 3 3 5 7 8 7 5 3 3 1 1 2 3 4 4 5 5 4
3 3 2 2 1 1 2 2 2 1 1 1 1 2 3 3 2 3 3 3 3 3 3 3 3 3 3 4 6 7 7 5 3 2 2 2 4 4 4 5 6 4 3
3 3 3 3 3 2 2 2 2 1 1 1 1 2 2 2 2 2 3 3 3 3 3 3 3 2 2 2 3 3 3 3 3 2 3 4 6 6 5 4 4 4 4
3 3 3 3 3 3 2 2 2 1 2 2 2 2 3 3 2 2 2 3 2 2 2 2 1 1 1 1 1 1 1 1 1 1 2 3 3 3 3 3 3 3 3
3 3 4 4 3 2 2 2 2 2 1 2 2 2 2 2 3 3 2 1 1 1 2 2 1 1 2 3 1 1 2 2 2 1 3 3 3 3 3 2 3 2 2
Wind_Direction
156 144 136 128 128 125 126 142 147 143 147 150 162 163 154 145 132 126 113 119 122 114 107 69 124 80 76 76 70 63 120 263 308 337 316 288 224 146 129 174 158 16 61
154 146 145 141 137 139 141 143 144 153 159 150 163 160 149 150 136 121 121 133 130 124 149 79 126 112 97 80 51 14 2 308 294 306 291 308 338 339 213 186 171 5 353
154 149 155 154 152 147 147 145 147 151 157 151 158 159 148 157 140 135 132 150 145 149 92 111 41 89 120 117 118 9 336 300 305 15 31 350 333 313 305 275 100 50 342
157 158 158 157 156 150 148 139 137 145 155 163 171 173 173 170 153 150 148 160 163 161 149 132 103 61 78 115 162 96 316 311 309 340 344 231 211 266 311 323 349 301 297
163 163 165 159 154 150 149 144 140 138 146 164 172 181 171 156 145 142 148 157 169 174 153 142 134 138 133 122 122 56 355 323 335 331 324 313 286 243 237 292 310 305 264
161 152 158 146 148 155 150 145 141 143 149 157 158 175 176 165 159 170 164 174 170 171 157 149 142 154 163 124 161 157 155 345 348 336 334 330 327 321 302 286 285 303 302
149 149 151 155 156 158 154 147 146 149 157 163 155 154 183 185 183 187 187 186 170 163 165 164 157 170 181 190 175 192 213 263 313 312 320 337 334 328 316 315 306 302 292
143 139 137 139 151 150 147 143 147 151 158 160 156 163 180 202 198 199 209 194 173 164 156 169 169 185 204 203 175 207 202 195 257 279 309 309 316 317 308 295 298 306 305
131 130 124 127 134 139 140 144 147 152 160 167 169 181 187 208 204 197 219 189 177 173 166 180 180 189 205 212 188 217 212 195 218 247 263 270 282 289 302 307 309 292 305
100 120 125 126 124 130 141 143 151 158 165 170 184 189 192 197 192 209 209 203 196 173 176 189 189 195 200 213 212 211 210 209 218 226 239 270 276 304 319 315 319 324 291
104 93 90 100 116 123 130 130 140 146 155 171 182 184 195 195 201 215 191 193 195 202 201 197 198 207 208 207 216 229 221 219 221 228 224 248 280 314 312 318 325 322 323
89 86 88 87 88 89 101 126 135 152 163 163 159 178 193 192 197 204 197 198 200 213 208 202 208 215 210 207 213 233 235 234 231 235 247 256 267 293 308 322 321 323 313
80 81 80 79 80 79 77 103 133 148 148 160 176 175 191 198 199 192 202 213 207 214 208 204 210 217 216 214 216 226 240 243 239 236 235 259 270 266 289 296 303 303 301
81 83 83 77 76 93 83 45 137 130 133 153 177 177 200 219 211 203 206 212 211 211 209 209 211 214 212 215 219 222 232 242 243 237 229 243 247 238 266 273 282 291 300
84 98 99 97 73 78 100 115 215 183 159 168 200 194 203 216 224 226 228 231 229 219 216 221 219 217 211 218 216 231 230 234 248 259 252 245 178 135 249 284 300 297 291
8 84 104 106 143 107 162 237 223 201 172 187 218 205 198 212 222 223 230 231 234 226 220 221 225 225 222 181 169 197 250 244 245 254 268 251 195 195 216 252 281 287 274
311 315 21 41 274 211 210 236 240 203 197 207 223 207 204 212 215 224 223 225 235 225 217 223 224 214 212 180 182 198 232 235 240 243 250 268 261 195 228 237 248 269 274
338 340 340 313 290 258 231 225 228 216 213 208 222 230 221 220 219 219 222 226 226 224 217 220 227 220 208 180 184 200 221 243 240 238 240 248 272 286 297 276 267 269 278
344 329 322 302 276 256 249 230 240 238 241 229 234 247 236 233 233 220 214 218 222 227 222 221 226 222 206 188 186 186 228 236 238 234 241 231 204 251 258 253 264 271 276
346 349 353 343 337 338 291 229 239 236 254 259 255 265 256 240 237 232 221 219 219 225 225 226 225 224 212 188 187 192 221 231 239 223 215 215 219 222 237 257 258 263 273
343 347 350 341 342 350 333 277 277 256 253 253 252 258 258 248 237 226 227 227 225 225 226 227 230 224 211 188 193 197 217 237 245 240 219 189 188 225 244 251 252 249 262
345 350 340 342 357 343 309 284 280 273 257 254 262 270 264 253 238 227 234 230 223 228 230 224 227 219 201 189 196 201 217 244 244 242 228 188 211 236 253 254 265 267 274
338 343 335 339 342 325 307 291 297 307 283 270 260 264 265 254 235 231 237 234 227 231 233 224 225 214 195 179 181 194 215 232 245 271 282 256 243 246 249 251 256 253 253
345 346 337 331 334 335 316 311 319 342 315 270 249 248 248 246 238 248 246 244 242 238 233 232 229 210 180 164 170 183 202 218 235 259 262 250 247 250 251 251 240 231 238
341 337 331 325 328 331 323 319 325 331 316 293 267 258 246 238 224 247 257 244 254 246 236 252 237 205 163 136 138 170 189 189 185 241 251 244 238 243 237 238 230 230 234
341 336 325 326 331 326 314 315 323 322 304 292 291 284 267 246 230 224 238 10 224 173 153 146 160 114 143 160 155 158 153 158 165 209 251 251 249 250 249 254 257 246 245